User: anonymous   Login
Location: Unspecified
(0.0000°N, 0.0000°E)
Time: 07:04:50
(UTC+00:00)
Language:

HODOYOSHI 4 - Orbit

View from above orbital plane
View from above orbital plane
View from above satellite
View from above satellite

Ground track
Ground track

The orbit data is extracted from the following two-line orbital elements,

1 40011U 14033B   18048.89508512  .00000068  00000-0  15510-4 0  9996
2 40011  97.8659 307.7251 0026138 188.9005 171.1760 14.80971873198120
Epoch (UTC): 17 February 2018 21:28:55
Eccentricity: 0.0026138
inclination: 97.8659°
perigee height: 608 km
apogee height: 644 km
right ascension of ascending node: 307.7251°
argument of perigee: 188.9005°
revolutions per day: 14.80971873
mean anomaly at epoch: 171.1760°
orbit number at epoch: 19812

The dashed part of the orbit path shows where the satellite is in the earth's shadow,  

DLR